| time (UTC) | temp C | wind direction | speed KPH | gust KPH | rain 1hr cm | rain 24hr cm | rain mn cm | humidity % | barometer mb |
| 20260508190518 | 11 | 0 | 0.0 | 0.0 | 0.00 | 0.00 | 0.00 | 89 | 1005.8 |
| 20260508190022 | 11 | 0 | 0.0 | 0.0 | 0.00 | 0.00 | 0.00 | 88 | 1005.8 |
| 20260508185518 | 11 | 0 | 0.0 | 0.0 | 0.00 | 0.00 | 0.00 | 88 | 1005.9 |
| 20260508185022 | 11 | 68 | 0.0 | 3.2 | 0.00 | 0.00 | 0.00 | 87 | 1005.9 |
| 20260508184518 | 12 | 68 | 0.0 | 3.2 | 0.00 | 0.00 | 0.00 | 87 | 1006.0 |
| 20260508184021 | 12 | 0 | 0.0 | 0.0 | 0.00 | 0.00 | 0.00 | 88 | 1006.0 |
| 20260508183518 | 12 | 0 | 0.0 | 0.0 | 0.00 | 0.00 | 0.00 | 88 | 1006.2 |
| 20260508183022 | 12 | 0 | 0.0 | 0.0 | 0.00 | 0.00 | 0.00 | 88 | 1006.3 |
| 20260508182518 | 12 | 0 | 0.0 | 0.0 | 0.00 | 0.00 | 0.00 | 88 | 1006.3 |
| 20260508182021 | 12 | 0 | 0.0 | 0.0 | 0.00 | 0.00 | 0.00 | 87 | 1006.3 |
| 20260508181518 | 12 | 0 | 0.0 | 0.0 | 0.00 | 0.00 | 0.00 | 87 | 1006.3 |
| 20260508181022 | 12 | 0 | 0.0 | 0.0 | 0.00 | 0.00 | 0.00 | 86 | 1006.4 |
| 20260508180518 | 12 | 0 | 0.0 | 0.0 | 0.00 | 0.00 | 0.00 | 86 | 1006.4 |
| 20260508180022 | 12 | 0 | 0.0 | 0.0 | 0.00 | 0.00 | 0.00 | 86 | 1006.3 |
| 20260508175518 | 12 | 0 | 0.0 | 0.0 | 0.00 | 0.00 | 0.00 | 85 | 1006.5 |
| 20260508175022 | 12 | 0 | 0.0 | 0.0 | 0.00 | 0.00 | 0.00 | 85 | 1006.5 |
| 20260508174518 | 12 | 0 | 0.0 | 0.0 | 0.00 | 0.00 | 0.00 | 86 | 1006.7 |
| 20260508174022 | 12 | 0 | 0.0 | 0.0 | 0.00 | 0.00 | 0.00 | 85 | 1006.6 |
| 20260508173518 | 12 | 0 | 0.0 | 0.0 | 0.00 | 0.00 | 0.00 | 85 | 1006.7 |
| 20260508173021 | 12 | 68 | 0.0 | 3.2 | 0.00 | 0.00 | 0.00 | 84 | 1006.9 |
| 20260508172519 | 13 | 69 | 0.0 | 3.2 | 0.00 | 0.00 | 0.00 | 84 | 1006.9 |
| 20260508172021 | 13 | 69 | 0.0 | 3.2 | 0.00 | 0.00 | 0.00 | 83 | 1007.0 |
| 20260508171518 | 13 | 69 | 0.0 | 3.2 | 0.00 | 0.00 | 0.00 | 82 | 1007.0 |
| 20260508171022 | 13 | 68 | 0.0 | 3.2 | 0.00 | 0.00 | 0.00 | 82 | 1007.0 |
| 20260508170518 | 13 | 68 | 0.0 | 3.2 | 0.00 | 0.00 | 0.00 | 81 | 1007.0 |
| 20260508170021 | 14 | 0 | 0.0 | 0.0 | 0.00 | 0.00 | 0.00 | 80 | 1007.0 |
| 20260508165518 | 14 | 0 | 0.0 | 0.0 | 0.00 | 0.00 | 0.00 | 79 | 1007.0 |
| 20260508165022 | 14 | 0 | 0.0 | 0.0 | 0.00 | 0.00 | 0.00 | 79 | 1006.9 |
| 20260508164518 | 15 | 68 | 0.0 | 3.2 | 0.00 | 0.00 | 0.00 | 78 | 1006.9 |
| 20260508164022 | 15 | 68 | 0.0 | 3.2 | 0.00 | 0.00 | 0.00 | 77 | 1006.9 |
| 20260508163518 | 15 | 68 | 0.0 | 3.2 | 0.00 | 0.00 | 0.00 | 76 | 1007.0 |
| 20260508163021 | 15 | 68 | 0.0 | 3.2 | 0.00 | 0.00 | 0.00 | 77 | 1006.9 |
| 20260508162520 | 15 | 0 | 0.0 | 0.0 | 0.00 | 0.00 | 0.00 | 76 | 1006.8 |
| 20260508162021 | 15 | 0 | 0.0 | 0.0 | 0.00 | 0.00 | 0.00 | 75 | 1007.0 |
| 20260508161518 | 15 | 0 | 0.0 | 0.0 | 0.00 | 0.00 | 0.00 | 74 | 1006.8 |
| 20260508161021 | 16 | 0 | 0.0 | 0.0 | 0.00 | 0.00 | 0.00 | 73 | 1006.8 |
| 20260508160518 | 16 | 0 | 0.0 | 0.0 | 0.00 | 0.00 | 0.00 | 72 | 1006.8 |
| 20260508155021 | 16 | 68 | 0.0 | 3.2 | 0.00 | 0.00 | 0.00 | 71 | 1006.8 |
| 20260508154518 | 16 | 68 | 0.0 | 3.2 | 0.00 | 0.00 | 0.00 | 70 | 1006.9 |
| 20260508154021 | 17 | 68 | 0.0 | 3.2 | 0.00 | 0.00 | 0.00 | 69 | 1006.8 |
| 20260508153518 | 17 | 90 | 0.0 | 3.2 | 0.00 | 0.00 | 0.00 | 67 | 1006.8 |
| 20260508153021 | 17 | 90 | 0.0 | 3.2 | 0.00 | 0.00 | 0.00 | 66 | 1006.7 |
| 20260508152518 | 18 | 90 | 0.0 | 3.2 | 0.00 | 0.00 | 0.00 | 65 | 1006.7 |
| 20260508152021 | 18 | 90 | 0.0 | 3.2 | 0.00 | 0.00 | 0.00 | 65 | 1006.7 |
| 20260508151021 | 18 | 87 | 1.6 | 6.4 | 0.00 | 0.00 | 0.00 | 64 | 1006.7 |
| 20260508150518 | 18 | 88 | 1.6 | 6.4 | 0.00 | 0.00 | 0.00 | 63 | 1006.9 |
| 20260508150022 | 18 | 85 | 1.6 | 3.2 | 0.00 | 0.00 | 0.00 | 63 | 1006.8 |
| 20260508145518 | 19 | 85 | 1.6 | 3.2 | 0.00 | 0.00 | 0.00 | 63 | 1006.9 |
| 20260508144021 | 20 | 83 | 1.6 | 6.4 | 0.00 | 0.00 | 0.00 | 61 | 1006.9 |
| 20260508143518 | 20 | 93 | 1.6 | 3.2 | 0.00 | 0.00 | 0.00 | 61 | 1006.9 |
| 20260508143021 | 20 | 100 | 0.0 | 3.2 | 0.00 | 0.00 | 0.00 | 60 | 1006.8 |
| 20260508142021 | 20 | 95 | 1.6 | 3.2 | 0.00 | 0.00 | 0.00 | 58 | 1006.8 |
| 20260508141518 | 21 | 90 | 1.6 | 6.4 | 0.00 | 0.00 | 0.00 | 58 | 1006.8 |
| 20260508141021 | 21 | 96 | 1.6 | 6.4 | 0.00 | 0.00 | 0.00 | 57 | 1007.0 |
| 20260508140517 | 21 | 91 | 1.6 | 6.4 | 0.00 | 0.00 | 0.00 | 57 | 1006.9 |
| 20260508135021 | 20 | 85 | 1.6 | 6.4 | 0.00 | 0.00 | 0.00 | 57 | 1007.0 |
| 20260508134518 | 20 | 93 | 1.6 | 6.4 | 0.00 | 0.00 | 0.00 | 56 | 1007.1 |
| 20260508133518 | 21 | 91 | 1.6 | 6.4 | 0.00 | 0.00 | 0.00 | 56 | 1007.1 |
| 20260508133022 | 21 | 91 | 3.2 | 6.4 | 0.00 | 0.00 | 0.00 | 56 | 1007.3 |
| 20260508132021 | 21 | 90 | 3.2 | 11.3 | 0.00 | 0.00 | 0.00 | 56 | 1007.4 |
| 20260508131021 | 21 | 103 | 4.8 | 14.5 | 0.00 | 0.00 | 0.00 | 57 | 1007.4 |
| 20260508130021 | 21 | 107 | 4.8 | 17.7 | 0.00 | 0.00 | 0.00 | 57 | 1007.6 |
| 20260508125518 | 22 | 80 | 4.8 | 17.7 | 0.00 | 0.00 | 0.00 | 56 | 1007.7 |
| 20260508125021 | 22 | 75 | 4.8 | 17.7 | 0.00 | 0.00 | 0.00 | 55 | 1007.6 |
| 20260508124021 | 22 | 65 | 4.8 | 12.9 | 0.00 | 0.00 | 0.00 | 50 | 1007.6 |
| 20260508123022 | 22 | 41 | 6.4 | 12.9 | 0.00 | 0.00 | 0.00 | 51 | 1007.8 |
| 20260508122008 | 22 | 35 | 4.8 | 12.9 | 0.00 | 0.00 | 0.00 | 51 | 1007.8 |
| 20260508121008 | 22 | 51 | 6.4 | 14.5 | 0.00 | 0.00 | 0.00 | 51 | 1008.0 |
| 20260508120505 | 22 | 54 | 4.8 | 12.9 | 0.00 | 0.00 | 0.00 | 51 | 1008.1 |
| 20260508115009 | 22 | 50 | 6.4 | 14.5 | 0.00 | 0.00 | 0.00 | 50 | 1008.2 |
| 20260508114504 | 22 | 24 | 6.4 | 14.5 | 0.00 | 0.00 | 0.00 | 52 | 1008.2 |
| 20260508112504 | 21 | 47 | 4.8 | 14.5 | 0.00 | 0.00 | 0.00 | 52 | 1008.2 |
| 20260508112008 | 21 | 55 | 4.8 | 14.5 | 0.00 | 0.00 | 0.00 | 53 | 1008.5 |
| 20260508111505 | 21 | 61 | 3.2 | 11.3 | 0.00 | 0.00 | 0.00 | 54 | 1008.5 |
| 20260508111008 | 21 | 58 | 4.8 | 9.7 | 0.00 | 0.00 | 0.00 | 53 | 1008.6 |
| 20260508110504 | 21 | 36 | 4.8 | 11.3 | 0.00 | 0.00 | 0.00 | 53 | 1008.6 |
| 20260508110009 | 21 | 36 | 4.8 | 11.3 | 0.00 | 0.00 | 0.00 | 53 | 1008.5 |
| 20260508105505 | 21 | 44 | 3.2 | 6.4 | 0.00 | 0.00 | 0.00 | 53 | 1008.6 |
| 20260508104505 | 21 | 26 | 4.8 | 11.3 | 0.00 | 0.00 | 0.00 | 53 | 1008.9 |
| 20260508104008 | 21 | 23 | 3.2 | 9.7 | 0.00 | 0.00 | 0.00 | 53 | 1008.8 |
| 20260508103504 | 21 | 37 | 3.2 | 11.3 | 0.00 | 0.00 | 0.00 | 52 | 1008.8 |
| 20260508103008 | 21 | 44 | 4.8 | 11.3 | 0.00 | 0.00 | 0.00 | 52 | 1008.9 |
| 20260508102505 | 21 | 43 | 3.2 | 9.7 | 0.00 | 0.00 | 0.00 | 52 | 1008.9 |
| 20260508101505 | 21 | 74 | 6.4 | 14.5 | 0.00 | 0.00 | 0.00 | 52 | 1009.0 |
| 20260508100505 | 21 | 33 | 3.2 | 12.9 | 0.00 | 0.00 | 0.00 | 51 | 1008.9 |
| 20260508100008 | 21 | 32 | 3.2 | 9.7 | 0.00 | 0.00 | 0.00 | 52 | 1009.0 |
| 20260508095504 | 21 | 49 | 4.8 | 9.7 | 0.00 | 0.00 | 0.00 | 52 | 1009.0 |
| 20260508095008 | 21 | 65 | 4.8 | 11.3 | 0.00 | 0.00 | 0.00 | 51 | 1009.1 |
| 20260508094505 | 21 | 60 | 4.8 | 11.3 | 0.00 | 0.00 | 0.00 | 52 | 1009.1 |
| 20260508094008 | 21 | 51 | 4.8 | 12.9 | 0.00 | 0.00 | 0.00 | 52 | 1009.3 |
| 20260508093505 | 21 | 42 | 4.8 | 12.9 | 0.00 | 0.00 | 0.00 | 51 | 1009.4 |
| 20260508093008 | 20 | 38 | 4.8 | 12.9 | 0.00 | 0.00 | 0.00 | 51 | 1009.5 |
| 20260508092504 | 21 | 55 | 4.8 | 12.9 | 0.00 | 0.00 | 0.00 | 50 | 1009.4 |
| 20260508091505 | 20 | 61 | 4.8 | 12.9 | 0.00 | 0.00 | 0.00 | 53 | 1009.5 |
| 20260508090505 | 20 | 69 | 4.8 | 12.9 | 0.00 | 0.00 | 0.00 | 52 | 1009.5 |
| 20260508085505 | 20 | 71 | 6.4 | 12.9 | 0.00 | 0.00 | 0.00 | 52 | 1009.4 |
| 20260508085008 | 20 | 73 | 6.4 | 17.7 | 0.00 | 0.00 | 0.00 | 53 | 1009.6 |
| 20260508084504 | 20 | 58 | 6.4 | 17.7 | 0.00 | 0.00 | 0.00 | 52 | 1009.6 |
| 20260508084009 | 20 | 45 | 6.4 | 14.5 | 0.00 | 0.00 | 0.00 | 53 | 1009.7 |
| 20260508083008 | 19 | 32 | 6.4 | 12.9 | 0.00 | 0.00 | 0.00 | 54 | 1009.7 |
| 20260508082505 | 19 | 52 | 4.8 | 12.9 | 0.00 | 0.00 | 0.00 | 54 | 1009.8 |
| 20260508082008 | 19 | 48 | 4.8 | 14.5 | 0.00 | 0.00 | 0.00 | 54 | 1009.7 |
| 20260508081505 | 19 | 41 | 6.4 | 14.5 | 0.00 | 0.00 | 0.00 | 54 | 1009.9 |
| 20260508081008 | 19 | 45 | 6.4 | 14.5 | 0.00 | 0.00 | 0.00 | 53 | 1009.9 |
| 20260508080505 | 19 | 50 | 6.4 | 17.7 | 0.00 | 0.00 | 0.00 | 54 | 1010.0 |
| 20260508080008 | 20 | 64 | 6.4 | 17.7 | 0.00 | 0.00 | 0.00 | 54 | 1009.9 |
| 20260508075505 | 19 | 62 | 8.0 | 17.7 | 0.00 | 0.00 | 0.00 | 54 | 1010.0 |
| 20260508075008 | 18 | 63 | 8.0 | 17.7 | 0.00 | 0.00 | 0.00 | 55 | 1009.9 |
| 20260508074009 | 19 | 33 | 4.8 | 12.9 | 0.00 | 0.00 | 0.00 | 54 | 1010.1 |
| 20260508073008 | 19 | 25 | 6.4 | 12.9 | 0.00 | 0.00 | 0.00 | 56 | 1010.2 |
| 20260508072008 | 17 | 22 | 6.4 | 17.7 | 0.00 | 0.00 | 0.00 | 58 | 1010.3 |
| 20260508071505 | 17 | 22 | 6.4 | 14.5 | 0.00 | 0.00 | 0.00 | 60 | 1010.3 |
| 20260508071008 | 17 | 44 | 6.4 | 12.9 | 0.00 | 0.00 | 0.00 | 61 | 1010.2 |
| 20260508070008 | 17 | 24 | 4.8 | 12.9 | 0.00 | 0.00 | 0.00 | 63 | 1010.4 |
| 20260508065008 | 17 | 2 | 4.8 | 12.9 | 0.00 | 0.00 | 0.00 | 64 | 1010.3 |
| 20260508064008 | 16 | 34 | 4.8 | 12.9 | 0.00 | 0.00 | 0.00 | 65 | 1010.3 |
| 20260508063505 | 17 | 17 | 6.4 | 17.7 | 0.00 | 0.00 | 0.00 | 66 | 1010.3 |
| 20260508062505 | 16 | 68 | 8.0 | 20.9 | 0.00 | 0.00 | 0.00 | 65 | 1010.2 |
| 20260508062007 | 16 | 43 | 8.0 | 20.9 | 0.00 | 0.00 | 0.00 | 68 | 1010.3 |
| 20260508061505 | 17 | 28 | 6.4 | 14.5 | 0.00 | 0.00 | 0.00 | 67 | 1010.3 |
| 20260508061008 | 17 | 11 | 6.4 | 12.9 | 0.00 | 0.00 | 0.00 | 67 | 1010.4 |
| 20260508055505 | 16 | 56 | 3.2 | 6.4 | 0.00 | 0.00 | 0.00 | 69 | 1010.4 |
| 20260508054505 | 16 | 8 | 3.2 | 9.7 | 0.00 | 0.00 | 0.00 | 70 | 1010.5 |
| 20260508054008 | 16 | 4 | 3.2 | 9.7 | 0.00 | 0.00 | 0.00 | 72 | 1010.4 |
| 20260508053008 | 16 | 351 | 4.8 | 11.3 | 0.00 | 0.00 | 0.00 | 72 | 1010.4 |
| 20260508052505 | 15 | 349 | 4.8 | 11.3 | 0.00 | 0.00 | 0.00 | 73 | 1010.3 |
| 20260508052007 | 15 | 349 | 4.8 | 9.7 | 0.00 | 0.00 | 0.00 | 72 | 1010.4 |
| 20260508051505 | 16 | 357 | 3.2 | 9.7 | 0.00 | 0.00 | 0.00 | 72 | 1010.3 |
| 20260508045008 | 15 | 35 | 3.2 | 9.7 | 0.00 | 0.00 | 0.00 | 74 | 1010.2 |
| 20260508044504 | 15 | 25 | 3.2 | 9.7 | 0.00 | 0.00 | 0.00 | 75 | 1010.0 |
| 20260508044008 | 15 | 23 | 4.8 | 9.7 | 0.00 | 0.00 | 0.00 | 75 | 1010.1 |
| 20260508042008 | 15 | 55 | 4.8 | 11.3 | 0.00 | 0.00 | 0.00 | 74 | 1010.2 |
| 20260508041505 | 15 | 53 | 3.2 | 11.3 | 0.00 | 0.00 | 0.00 | 74 | 1010.1 |
| 20260508041008 | 15 | 45 | 3.2 | 11.3 | 0.00 | 0.00 | 0.00 | 75 | 1010.1 |
| 20260508040505 | 15 | 40 | 3.2 | 11.3 | 0.00 | 0.00 | 0.00 | 75 | 1010.1 |
| 20260508040008 | 15 | 52 | 4.8 | 12.9 | 0.00 | 0.00 | 0.00 | 75 | 1010.0 |
| 20260508035504 | 14 | 59 | 4.8 | 12.9 | 0.00 | 0.00 | 0.00 | 75 | 1009.9 |
| 20260508035008 | 14 | 60 | 4.8 | 11.3 | 0.00 | 0.00 | 0.00 | 75 | 1009.8 |
| 20260508034504 | 14 | 53 | 3.2 | 11.3 | 0.00 | 0.00 | 0.00 | 75 | 1009.9 |
| 20260508034008 | 14 | 43 | 4.8 | 11.3 | 0.00 | 0.00 | 0.00 | 76 | 1010.0 |
| 20260508033504 | 14 | 47 | 4.8 | 11.3 | 0.00 | 0.00 | 0.00 | 76 | 1009.9 |
| 20260508033009 | 14 | 40 | 4.8 | 12.9 | 0.00 | 0.00 | 0.00 | 77 | 1010.0 |
| 20260508032505 | 14 | 36 | 3.2 | 12.9 | 0.00 | 0.00 | 0.00 | 77 | 1009.9 |
| 20260508032008 | 14 | 44 | 4.8 | 12.9 | 0.00 | 0.00 | 0.00 | 78 | 1010.0 |
| 20260508031505 | 13 | 39 | 4.8 | 11.3 | 0.00 | 0.00 | 0.00 | 78 | 1009.9 |
| 20260508031008 | 13 | 35 | 4.8 | 12.9 | 0.00 | 0.00 | 0.00 | 79 | 1009.9 |
| 20260508030505 | 13 | 32 | 3.2 | 12.9 | 0.00 | 0.00 | 0.00 | 80 | 1010.0 |
| 20260508030008 | 13 | 39 | 3.2 | 12.9 | 0.00 | 0.00 | 0.00 | 80 | 1010.1 |
| 20260508025505 | 13 | 47 | 3.2 | 9.7 | 0.00 | 0.00 | 0.00 | 81 | 1010.1 |
| 20260508025008 | 13 | 33 | 4.8 | 12.9 | 0.00 | 0.00 | 0.00 | 82 | 1010.2 |
| 20260508024504 | 13 | 36 | 4.8 | 12.9 | 0.00 | 0.00 | 0.00 | 82 | 1010.1 |
| 20260508024009 | 13 | 45 | 3.2 | 9.7 | 0.00 | 0.00 | 0.00 | 82 | 1010.1 |
| 20260508023505 | 12 | 46 | 4.8 | 11.3 | 0.00 | 0.00 | 0.00 | 83 | 1010.0 |
| 20260508023007 | 12 | 49 | 3.2 | 11.3 | 0.00 | 0.00 | 0.00 | 83 | 1010.0 |
| 20260508022505 | 12 | 37 | 3.2 | 9.7 | 0.00 | 0.00 | 0.00 | 83 | 1010.0 |
| 20260508022008 | 12 | 14 | 3.2 | 9.7 | 0.00 | 0.00 | 0.00 | 84 | 1010.0 |
| 20260508021505 | 12 | 357 | 1.6 | 6.4 | 0.00 | 0.00 | 0.00 | 84 | 1009.9 |
| 20260508021007 | 12 | 7 | 1.6 | 9.7 | 0.00 | 0.00 | 0.00 | 84 | 1009.9 |
| 20260508020505 | 12 | 4 | 3.2 | 9.7 | 0.00 | 0.00 | 0.00 | 84 | 1009.9 |
| 20260508020008 | 12 | 353 | 3.2 | 9.7 | 0.00 | 0.00 | 0.00 | 84 | 1009.9 |
| 20260508015505 | 12 | 344 | 3.2 | 9.7 | 0.00 | 0.00 | 0.00 | 84 | 1010.0 |
| 20260508015008 | 12 | 320 | 0.0 | 6.4 | 0.00 | 0.00 | 0.00 | 85 | 1009.9 |
| 20260508014505 | 12 | 270 | 0.0 | 3.2 | 0.00 | 0.00 | 0.00 | 86 | 1009.9 |
| 20260508014008 | 11 | 238 | 0.0 | 3.2 | 0.00 | 0.00 | 0.00 | 87 | 1009.8 |
| 20260508013505 | 11 | 225 | 0.0 | 3.2 | 0.00 | 0.00 | 0.00 | 88 | 1009.9 |
| 20260508013007 | 10 | 225 | 0.0 | 3.2 | 0.00 | 0.00 | 0.00 | 88 | 1010.0 |
| 20260508012505 | 10 | 225 | 0.0 | 3.2 | 0.00 | 0.00 | 0.00 | 88 | 1010.0 |
| 20260508012007 | 10 | 234 | 0.0 | 3.2 | 0.00 | 0.00 | 0.00 | 88 | 1009.9 |
| 20260508011505 | 9 | 266 | 0.0 | 3.2 | 0.00 | 0.00 | 0.00 | 89 | 1009.8 |
| 20260508011007 | 9 | 270 | 0.0 | 3.2 | 0.00 | 0.00 | 0.00 | 89 | 1009.8 |
| 20260508010505 | 8 | 270 | 0.0 | 3.2 | 0.00 | 0.00 | 0.00 | 89 | 1009.8 |
| 20260508010008 | 8 | 270 | 0.0 | 3.2 | 0.00 | 0.00 | 0.00 | 89 | 1009.8 |
| 20260508005505 | 8 | 254 | 0.0 | 3.2 | 0.00 | 0.00 | 0.00 | 89 | 1009.8 |
| 20260508005007 | 8 | 245 | 0.0 | 3.2 | 0.00 | 0.00 | 0.00 | 89 | 1009.8 |
| 20260508004505 | 8 | 225 | 0.0 | 3.2 | 0.00 | 0.00 | 0.00 | 89 | 1009.8 |
| 20260508004007 | 8 | 208 | 0.0 | 3.2 | 0.00 | 0.00 | 0.00 | 89 | 1009.8 |
| 20260508003505 | 8 | 203 | 0.0 | 3.2 | 0.00 | 0.00 | 0.00 | 88 | 1009.7 |
| 20260508003008 | 8 | 203 | 0.0 | 3.2 | 0.00 | 0.00 | 0.00 | 88 | 1009.7 |
| 20260508002505 | 8 | 203 | 0.0 | 3.2 | 0.00 | 0.00 | 0.00 | 89 | 1009.6 |
| 20260508002007 | 8 | 0 | 0.0 | 0.0 | 0.00 | 0.00 | 0.00 | 88 | 1009.6 |
| 20260508001505 | 7 | 0 | 0.0 | 0.0 | 0.00 | 0.00 | 0.00 | 88 | 1009.5 |
| 20260508001008 | 7 | 0 | 0.0 | 0.0 | 0.00 | 0.00 | 0.00 | 88 | 1009.5 |
| 20260508000505 | 7 | 0 | 0.0 | 0.0 | 0.00 | 0.00 | 0.00 | 88 | 1009.5 |
| 20260508000008 | 7 | 203 | 0.0 | 3.2 | 0.00 | 0.00 | 0.00 | 88 | 1009.4 |
| 20260507235505 | 7 | 223 | 1.6 | 3.2 | 0.00 | 0.00 | 0.00 | 88 | 1009.4 |
| 20260507235007 | 8 | 246 | 0.0 | 3.2 | 0.00 | 0.00 | 0.00 | 87 | 1009.4 |
| 20260507234505 | 7 | 0 | 0.0 | 0.0 | 0.00 | 0.00 | 0.00 | 88 | 1009.4 |
| 20260507234007 | 7 | 292 | 0.0 | 3.2 | 0.00 | 0.00 | 0.00 | 87 | 1009.3 |
| 20260507233505 | 7 | 292 | 0.0 | 3.2 | 0.00 | 0.00 | 0.00 | 87 | 1009.3 |
| 20260507233007 | 8 | 290 | 1.6 | 3.2 | 0.00 | 0.00 | 0.00 | 87 | 1009.1 |
| 20260507232505 | 8 | 269 | 1.6 | 3.2 | 0.00 | 0.00 | 0.00 | 86 | 1009.2 |
| 20260507232009 | 8 | 291 | 1.6 | 6.4 | 0.00 | 0.00 | 0.00 | 84 | 1009.3 |
| 20260507231504 | 10 | 308 | 1.6 | 6.4 | 0.00 | 0.00 | 0.00 | 85 | 1009.4 |
| 20260507231008 | 9 | 302 | 1.6 | 6.4 | 0.00 | 0.00 | 0.00 | 87 | 1009.4 |
| 20260507230504 | 8 | 333 | 0.0 | 3.2 | 0.00 | 0.00 | 0.00 | 85 | 1009.4 |
| 20260507230008 | 8 | 341 | 0.0 | 3.2 | 0.00 | 0.00 | 0.00 | 86 | 1009.2 |
| 20260507225504 | 8 | 0 | 0.0 | 0.0 | 0.00 | 0.00 | 0.00 | 85 | 1009.3 |
| 20260507225008 | 8 | 292 | 0.0 | 3.2 | 0.00 | 0.00 | 0.00 | 87 | 1009.2 |
| 20260507224505 | 8 | 292 | 0.0 | 3.2 | 0.00 | 0.00 | 0.00 | 87 | 1009.1 |
| 20260507224008 | 8 | 292 | 0.0 | 3.2 | 0.00 | 0.00 | 0.00 | 87 | 1009.2 |
| 20260507223504 | 7 | 0 | 0.0 | 0.0 | 0.00 | 0.00 | 0.00 | 86 | 1009.2 |
| 20260507223008 | 7 | 0 | 0.0 | 0.0 | 0.00 | 0.00 | 0.00 | 86 | 1009.1 |
| 20260507222505 | 7 | 0 | 0.0 | 0.0 | 0.00 | 0.00 | 0.00 | 85 | 1009.1 |
| 20260507222008 | 8 | 0 | 0.0 | 0.0 | 0.00 | 0.00 | 0.00 | 85 | 1009.0 |
| 20260507221504 | 8 | 0 | 0.0 | 0.0 | 0.00 | 0.00 | 0.00 | 85 | 1009.1 |
| 20260507221009 | 8 | 0 | 0.0 | 0.0 | 0.00 | 0.00 | 0.00 | 85 | 1009.0 |
| 20260507220505 | 8 | 0 | 0.0 | 0.0 | 0.00 | 0.00 | 0.00 | 85 | 1009.1 |
| 20260507220008 | 8 | 0 | 0.0 | 0.0 | 0.00 | 0.00 | 0.00 | 85 | 1009.1 |
| 20260507215504 | 8 | 0 | 0.0 | 0.0 | 0.00 | 0.00 | 0.00 | 85 | 1009.0 |
| 20260507215007 | 8 | 0 | 0.0 | 0.0 | 0.00 | 0.00 | 0.00 | 85 | 1009.0 |
| 20260507214505 | 8 | 0 | 0.0 | 0.0 | 0.00 | 0.00 | 0.00 | 84 | 1009.0 |
| 20260507214008 | 8 | 0 | 0.0 | 0.0 | 0.00 | 0.00 | 0.00 | 84 | 1009.0 |
| 20260507213504 | 8 | 0 | 0.0 | 0.0 | 0.00 | 0.00 | 0.00 | 84 | 1009.0 |
| 20260507213007 | 8 | 0 | 0.0 | 0.0 | 0.00 | 0.00 | 0.00 | 83 | 1008.9 |
| 20260507212505 | 8 | 0 | 0.0 | 0.0 | 0.00 | 0.00 | 0.00 | 83 | 1009.0 |
| 20260507212007 | 8 | 0 | 0.0 | 0.0 | 0.00 | 0.00 | 0.00 | 83 | 1009.0 |
| 20260507211505 | 8 | 292 | 0.0 | 3.2 | 0.00 | 0.00 | 0.00 | 83 | 1009.0 |
| 20260507211007 | 8 | 292 | 0.0 | 3.2 | 0.00 | 0.00 | 0.00 | 82 | 1009.0 |
| 20260507210505 | 9 | 294 | 0.0 | 3.2 | 0.00 | 0.00 | 0.00 | 82 | 1009.1 |
| 20260507210008 | 9 | 296 | 0.0 | 3.2 | 0.00 | 0.00 | 0.00 | 81 | 1009.1 |
| 20260507205504 | 9 | 342 | 0.0 | 3.2 | 0.00 | 0.00 | 0.00 | 81 | 1009.2 |
| 20260507205008 | 10 | 287 | 0.0 | 3.2 | 0.00 | 0.00 | 0.00 | 80 | 1009.1 |
| 20260507204505 | 10 | 272 | 0.0 | 3.2 | 0.00 | 0.00 | 0.00 | 80 | 1009.2 |
| 20260507204007 | 10 | 0 | 0.0 | 0.0 | 0.00 | 0.00 | 0.00 | 80 | 1009.2 |
| 20260507203504 | 10 | 203 | 0.0 | 3.2 | 0.00 | 0.00 | 0.00 | 80 | 1009.3 |
| 20260507203008 | 10 | 218 | 0.0 | 3.2 | 0.00 | 0.00 | 0.00 | 79 | 1009.4 |
| 20260507202505 | 10 | 270 | 0.0 | 3.2 | 0.00 | 0.00 | 0.00 | 79 | 1009.3 |
| 20260507202008 | 10 | 287 | 0.0 | 3.2 | 0.00 | 0.00 | 0.00 | 79 | 1009.3 |
| 20260507201504 | 10 | 282 | 0.0 | 3.2 | 0.00 | 0.00 | 0.00 | 79 | 1009.1 |
| 20260507201008 | 10 | 259 | 1.6 | 3.2 | 0.00 | 0.00 | 0.00 | 79 | 1009.2 |
| 20260507200504 | 10 | 268 | 1.6 | 3.2 | 0.00 | 0.00 | 0.00 | 78 | 1009.3 |
| 20260507200009 | 10 | 290 | 1.6 | 3.2 | 0.00 | 0.00 | 0.00 | 77 | 1009.3 |
| 20260507195504 | 11 | 288 | 1.6 | 3.2 | 0.00 | 0.00 | 0.00 | 76 | 1009.4 |
| 20260507195007 | 11 | 286 | 1.6 | 3.2 | 0.00 | 0.00 | 0.00 | 76 | 1009.3 |
| 20260507194505 | 11 | 68 | 0.0 | 3.2 | 0.00 | 0.00 | 0.00 | 74 | 1009.3 |
| 20260507194008 | 11 | 69 | 0.0 | 3.2 | 0.00 | 0.00 | 0.00 | 74 | 1009.2 |
| 20260507193504 | 11 | 69 | 0.0 | 3.2 | 0.00 | 0.00 | 0.00 | 73 | 1009.2 |
| 20260507193008 | 11 | 87 | 0.0 | 3.2 | 0.00 | 0.00 | 0.00 | 74 | 1009.3 |
| 20260507192504 | 11 | 135 | 0.0 | 3.2 | 0.00 | 0.00 | 0.00 | 74 | 1009.3 |
| 20260507192008 | 11 | 0 | 0.0 | 0.0 | 0.00 | 0.00 | 0.00 | 74 | 1009.3 |
| 20260507191504 | 11 | 0 | 0.0 | 0.0 | 0.00 | 0.00 | 0.00 | 74 | 1009.4 |
| 20260507191008 | 11 | 0 | 0.0 | 0.0 | 0.00 | 0.00 | 0.00 | 74 | 1009.3 |